Regional Weather Roundup
Issued by NWS Charleston, SC

Current Version | Previous Version | Graphics & Text | Print | Product List | Glossary On
Versions: 1 2 3 4 5 6 7 8 9 10 11 12 13 14 15 16 17 18 19 20 21 22 23 24 25 26 27 28 29 30 31 32 33 34 35 36 37 38 39 40 41 42 43 44 45 46 47 48 49 50
707 ASUS42 KCHS 252313 RWRCHS REGIONAL WEATHER ROUNDUP NATIONAL WEATHER SERVICE CHARLESTON SC 700 PM EDT WED MAY 25 2016 NOTE: "FAIR" INDICATES FEW OR NO CLOUDS BELOW 12,000 FEET WITH NO SIGNIFICANT WEATHER AND/OR OBSTRUCTIONS TO VISIBILITY. NOT ALL STATIONS ARE QUALITY CONTROLLED. USE DATA WITH CAUTION... ESPECIALLY DEWPOINT OBSERVATIONS. SCZ027-030-031-034>040-042>050-260000- ...SOUTHEAST SOUTH CAROLINA... CITY SKY/WX TMP DP RH WIND PRES REMARKS N CHARLESTON MOSUNNY 83 58 42 S12 30.17S WATERFRONT PRK N/A 80 65 59 S10 30.15F MOUNT PLEASANT FAIR 81 63 54 S9 30.17F JOHNS ISLAND FAIR 81 64 57 S9 30.18S PINOPOLIS N/A 97 61 30 CALM 30.09R HX 97 MONCKS CORNER FAIR 81 55 41 S8 30.16S SUMMERVILLE FAIR 86 63 45 S3 30.17S BEAUFORT MCAS MOSUNNY 82 63 52 SE5 30.17F BEAUFORT ARPT FAIR 81 61 50 S3 30.17F HILTON HEAD IS SUNNY 82 68 61 S10 30.20S WALTERBORO CLEAR 86 61 42 S10 30.17S ALLENDALE FAIR 86 57 37 VRB3 30.15F ...SOUTHERN MIDLANDS AND PEE DEE... CITY SKY/WX TMP DP RH WIND PRES REMARKS GEORGETOWN FAIR 79 61 53 S8 30.18F KINGSTREE FAIR 86 52 30 CALM 30.15F ORANGEBURG SUNNY 86 52 30 S6 30.16F BARNWELL FAIR 88 59 37 CALM 30.16F AIKEN FAIR 82 54 36 SW7 30.20S MANNING FAIR 84 54 34 S3 30.15F COLUMBIA MOSUNNY 87 54 32 S8 30.14F SUMTER SUNNY 86 57 37 SW5 30.13F FLORENCE MOSUNNY 87 56 34 SW5 30.14F MYRTLE BEACH NOT AVBL N MYRTLE BEACH SUNNY 77 69 76 S14 30.16F $$ GAZ063-065-086>088-099>101-113>116-118-119-134>141-150-260000- ...SOUTHEAST GEORGIA... CITY SKY/WX TMP DP RH WIND PRES REMARKS SAVANNAH ARPT MOSUNNY 83 58 42 S13 30.17F HUNTER AAF SUNNY 81 64 56 S8 30.15F FORT STEWART SUNNY 84 58 42 SE3 30.14F STATESBORO MOSUNNY 87 61 40 SE3 30.16F SYLVANIA CLEAR 88 57 34 CALM 30.17S CLAXTON FAIR 86 62 44 CALM 30.15F ...CSRA...CENTRAL AND FAR SOUTHEAST GEORGIA... CITY SKY/WX TMP DP RH WIND PRES REMARKS THOMSON SUNNY 87 60 39 SW3 30.20F AUGUSTA-BUSH SUNNY 86 54 33 S5 30.14F AUGUSTA-DANIEL SUNNY 87 53 31 S7 30.16F SWAINSBORO FAIR 88 54 31 S6 30.16F VIDALIA SUNNY 86 55 35 S3 30.16F EASTMAN FAIR 88 56 34 CALM 30.18S HAZLEHURST FAIR 88 52 29 CALM 30.14F ALMA SUNNY 87 55 33 SW6 30.15F WAYCROSS PTSUNNY 85 60 43 SE8 30.15F JESUP FAIR 81 54 39 S7 30.17S BAXLEY PTSUNNY 88 54 31 S3 30.15F BRUNSWICK SUNNY 86 64 48 S9 30.19S SAINT SIMONS SUNNY 79 65 62 SE9 30.18F $$ SCZ027-028-034-036>038-045-046-048>050-GAZ119-141-260000- ...LAKE AND SUPPLEMENTAL COASTAL OBSERVATIONS... STATION/POSITION TIME TEMP WIND PRES WAVE SWELL AIR SEA DIR/SP/G HT/PER HT/PER/DIR (UTC) (F) (DEG/KT/KT) (MB) (FT/S) (FT/S/D) WINYAH BAY 2145 81 200/ 11 1021.0 LAKE MURRAY 2200 86 CALM / 2 1020.7S ACE BASIN NERRS NOT AVBL FORT PULASKI 2200 76 150/ 6/ 11 1022.7F SAPELO ISLAND 2200 84 150/ 9 1022.0F $$ ANZ835-935-AMZ111-154-330-350-352-354-370-450-454-472-260000- ...C-MAN AND BUOY OBSERVATIONS... STATION/POSITION TIME TEMP WIND PRES WAVE SWELL AIR SEA DIR/SP/G HT/PER HT/PER/DIR (UTC) (F) (DEG/KT/KT) (MB) (FT/S) (FT/S/D) BUOY 41004 2250 78 79 180/ 6/ 8 1022.1F 2/ 8 2/ 8 BUOY 41008 2250 78 78 140/ 8/ 10 1022.1F 2/ 9 2/ 70/ 9 FOLLY BEACH CMAN 2300 77 190/ 11/ 12 1022.2F CAPERS NEARSHORE 2208 77 76 200/ 10/ 14 1022.0F FRIPP NEARSHORE 2208 77 79 180/ 12/ 14 1021.7F STATION/POSITION TIME TEMP WIND PRES WAVE SWELL AIR SEA DIR/SP/G HT/PER HT/PER/DIR (UTC) (F) (DEG/KT/KT) (MB) (FT/S) (FT/S/D) 5E ST. MARYS GA 2221 80 N/A 2/ 9 FRYING PAN BUOY 2200 77 77 200/ 8/ 10 1022.5F BUOY 41025 2250 74 73 220/ 10/ 10 1022.1F 2/ 8 2/130/ 8 CAPE LOOKOUT NC 2300 75 210/ 8/ 11 1021.8F BUOY 41002 2250 75 79 50/ 8/ 10 1022.8F 2/ 7 2/ 70/ 7 BUOY 41010 2220 76 78 60/ 12/ 14 1022.1S ST AUGUSTINE FL 2300 78 81 110/ 8/ 9 1023.1F $$

USA.gov is the U.S. government's official web portal to all federal, state and local government web resources and services.